AIC1UB EGPF-EGPH

Flight info

Callsign AIC1UB
Flight time 0h 11m
Altitude 8000
Route NORBO L186 TRN P600 GIRVA
Aircraft A320/M-SDE3FGHIRWY/LB1

Departure

Time 2026-05-05 20:16
Airport Glasgow Airport (EGPF)

Arrival

Time 2026-05-05 20:28
Airport Edinburgh Airport (EGPH)
Time Latitude Longitude Altitude Speed Heading
2026-05-05 20:10 55.86490 -4.43897 30 ft 2 kts 61°
2026-05-05 20:10 55.86483 -4.43923 30 ft 2 kts 42°
2026-05-05 20:11 55.86468 -4.43934 31 ft 2 kts 334°
2026-05-05 20:11 55.86467 -4.43933 31 ft 0 kts 333°
2026-05-05 20:13 55.86469 -4.43935 31 ft 3 kts 333°
2026-05-05 20:13 55.86525 -4.44006 31 ft 12 kts 331°
2026-05-05 20:13 55.86604 -4.44050 29 ft 12 kts 331°
2026-05-05 20:14 55.86617 -4.44166 30 ft 8 kts 269°
2026-05-05 20:14 55.86623 -4.44224 31 ft 2 kts 290°
2026-05-05 20:14 55.86685 -4.44266 33 ft 17 kts 21°
2026-05-05 20:14 55.86701 -4.44244 32 ft 0 kts 44°
2026-05-05 20:15 55.86702 -4.44243 32 ft 1 kts 44°
2026-05-05 20:15 55.86710 -4.44230 33 ft 2 kts 44°
2026-05-05 20:15 55.86726 -4.44202 33 ft 4 kts 44°
2026-05-05 20:15 55.86818 -4.44026 29 ft 53 kts 46°
2026-05-05 20:16 55.87233 -4.43252 29 ft 118 kts 46°
2026-05-05 20:16 55.87894 -4.42005 227 ft 148 kts 50°
2026-05-05 20:16 55.88457 -4.40460 773 ft 156 kts 73°
2026-05-05 20:16 55.88772 -4.38534 1317 ft 170 kts 78°
2026-05-05 20:17 55.88987 -4.36337 1643 ft 193 kts 93°
2026-05-05 20:17 55.88754 -4.33902 2265 ft 204 kts 101°
2026-05-05 20:17 55.88443 -4.31417 3131 ft 207 kts 101°
2026-05-05 20:17 55.88121 -4.28917 3895 ft 214 kts 101°
2026-05-05 20:18 55.87784 -4.26275 4684 ft 220 kts 102°
2026-05-05 20:18 55.87438 -4.23543 4941 ft 229 kts 101°
2026-05-05 20:18 55.87089 -4.20776 4977 ft 229 kts 101°
2026-05-05 20:18 55.86742 -4.18016 4989 ft 240 kts 101°
2026-05-05 20:19 55.86368 -4.15014 4987 ft 248 kts 101°
2026-05-05 20:19 55.85993 -4.12009 4966 ft 251 kts 102°
2026-05-05 20:19 55.85619 -4.09020 4726 ft 248 kts 101°
2026-05-05 20:19 55.85245 -4.06040 4480 ft 245 kts 101°
2026-05-05 20:20 55.84873 -4.03083 4238 ft 240 kts 102°
2026-05-05 20:20 55.84511 -4.00231 4052 ft 238 kts 101°
2026-05-05 20:20 55.84147 -3.97366 3983 ft 237 kts 101°
2026-05-05 20:20 55.83784 -3.94487 3986 ft 238 kts 101°
2026-05-05 20:21 55.83424 -3.91621 3987 ft 237 kts 100°
2026-05-05 20:21 55.83067 -3.88800 3985 ft 222 kts 100°
2026-05-05 20:21 55.82731 -3.86154 3984 ft 218 kts 100°
2026-05-05 20:21 55.82400 -3.83523 3984 ft 218 kts 100°
2026-05-05 20:22 55.82074 -3.80938 3993 ft 217 kts 99°
2026-05-05 20:22 55.81781 -3.78304 3990 ft 216 kts 91°
2026-05-05 20:22 55.81961 -3.75682 3993 ft 214 kts 70°
2026-05-05 20:22 55.82648 -3.73350 3999 ft 214 kts 58°
2026-05-05 20:23 55.83435 -3.71084 4000 ft 214 kts 58°
2026-05-05 20:23 55.84212 -3.68832 4000 ft 210 kts 58°
2026-05-05 20:23 55.84959 -3.66661 3832 ft 202 kts 59°
2026-05-05 20:23 55.85680 -3.64560 3590 ft 200 kts 59°
2026-05-05 20:24 55.86402 -3.62456 3323 ft 198 kts 59°
2026-05-05 20:24 55.87117 -3.60370 3049 ft 196 kts 59°
2026-05-05 20:24 55.87818 -3.58322 2781 ft 196 kts 60°
2026-05-05 20:24 55.88525 -3.56255 2507 ft 194 kts 61°
2026-05-05 20:25 55.89210 -3.54255 2267 ft 181 kts 61°
2026-05-05 20:25 55.89843 -3.52404 1996 ft 168 kts 61°
2026-05-05 20:25 55.90415 -3.50729 1788 ft 148 kts 62°
2026-05-05 20:25 55.90919 -3.49251 1570 ft 134 kts 62°
2026-05-05 20:26 55.91393 -3.47858 1391 ft 129 kts 62°
2026-05-05 20:26 55.91856 -3.46476 1199 ft 130 kts 61°
2026-05-05 20:26 55.92318 -3.45082 986 ft 131 kts 59°
2026-05-05 20:26 55.92802 -3.43707 778 ft 131 kts 61°
2026-05-05 20:27 55.93266 -3.42323 606 ft 131 kts 62°
2026-05-05 20:27 55.93743 -3.40944 436 ft 129 kts 62°
2026-05-05 20:27 55.94206 -3.39586 231 ft 131 kts 61°
2026-05-05 20:27 55.94678 -3.38204 117 ft 123 kts 61°
2026-05-05 20:28 55.95064 -3.37044 113 ft 88 kts 59°
2026-05-05 20:28 55.95261 -3.36454 110 ft 11 kts 84°
2026-05-05 20:28 55.95227 -3.36388 113 ft 4 kts 148°
2026-05-05 20:28 55.95218 -3.36379 114 ft 3 kts 149°
2026-05-05 20:29 55.95202 -3.36362 114 ft 1 kts 149°
2026-05-05 20:29 55.95191 -3.36350 115 ft 8 kts 149°
2026-05-05 20:29 55.95170 -3.36326 114 ft 0 kts 148°
2026-05-05 20:30 55.95139 -3.36307 116 ft 10 kts 181°
2026-05-05 20:30 55.95083 -3.36434 116 ft 14 kts 239°
2026-05-05 20:30 55.95038 -3.36565 114 ft 12 kts 239°
2026-05-05 20:30 55.94996 -3.36689 114 ft 11 kts 239°
2026-05-05 20:31 55.94951 -3.36810 115 ft 12 kts 221°
2026-05-05 20:31 55.94885 -3.36793 113 ft 11 kts 156°
2026-05-05 20:31 55.94805 -3.36778 116 ft 12 kts 179°
2026-05-05 20:31 55.94782 -3.36775 116 ft 6 kts 172°
2026-05-05 20:32 55.94752 -3.36690 114 ft 10 kts 84°
2026-05-05 20:32 55.94751 -3.36619 116 ft 5 kts 90°